Regional Weather Roundup
Issued by NWS

Home | Current Version | Previous Version | Graphics & Text | Print | Product List | Glossary On
Versions: 1 2 3 4 5 6 7 8 9 10 11 12 13 14 15 16 17 18 19 20 21 22 23 24 25 26 27 28
000
ASUS45 KTFX 300010
RWRMT
MONTANA REGIONAL WEATHER ROUNDUP
NATIONAL WEATHER SERVICE GREAT FALLS MT
600 PM MDT SAT APR 29 2017

NOTE: "FAIR" INDICATES FEW OR NO CLOUDS BELOW 12000 FEET WITH NO
SIGNIFICANT WEATHER AND/OR OBSTRUCTIONS TO VISIBILITY.

MTZ001>007-043-300100-
WEST OF THE DIVIDE

CITY           SKY/WX    TMP DP  RH WIND       PRES   REMARKS
KALISPELL      CLOUDY    53  38  56 SE12      30.09F
MISSOULA       PTSUNNY   56  29  35 CALM      30.11F
BUTTE          MOSUNNY   54  12  18 W9        30.08F
MULLAN PASS    CLOUDY    41  29  62 VRB6      30.13F
ANACONDA         N/A     55  18  22 NW7       30.07S
DEER LODGE       N/A     54  23  30 N5        30.11S
EUREKA           N/A     55  27  33 SW3       30.07F
HAMILTON         N/A     57  21  24 W9        30.10S
LIBBY            N/A     57  28  33 S8        30.08F
$$

MTZ008-052>055-300100-
SOUTHWEST MONTANA

CITY           SKY/WX    TMP DP  RH WIND       PRES   REMARKS
BOZEMAN        MOSUNNY   55  26  32 E6        30.09F
DILLON         PTSUNNY   56  15  20 SW12      30.07F
W YELLOWSTONE  CLOUDY    46  14  27 SW13G23   30.14F
THREE FORKS      N/A     58  58 100 S1        30.06F
$$

MTZ009-010-012-014-046-048-049-054-300100-
EAST SLOPES AND CENTRAL MONTANA

CITY           SKY/WX    TMP DP  RH WIND       PRES   REMARKS
CUT BANK       SUNNY     53  27  36 SW23G29   30.05S
GREAT FALLS    MOSUNNY   57  23  26 W13G21    30.04F
MALMSTROM AFB  MOSUNNY   57  26  30 SW10      30.06F
HELENA         PTSUNNY   61  22  22 N9        30.07S
AUGUSTA          N/A     54  18  24 W9        30.05F
BOWMANS CRNR     N/A     52  19  27 W15G21    30.04F
CHOTEAU          N/A     57  21  24 W15       30.06F
FAIRFIELD        N/A     55  24  30 SW5       30.05F
POWER            N/A     54  24  31 SW6       30.05F
RAYNESFORD       N/A     54  25  32 W10       30.07F
ULM              N/A     55  26  33 SW5       30.05F
$$

MTZ011-013-016-021-045-047-050-051-300100-
NORTH CENTRAL MONTANA

CITY           SKY/WX    TMP DP  RH WIND       PRES   REMARKS
HAVRE          PTSUNNY   56  35  45 CALM      30.05F
LEWISTOWN      PTSUNNY   45  37  73 SE16      30.09F
CHINOOK          N/A     55  28  35 SW3       30.05F
DENTON         LGT RAIN  48  37  63 MISG      30.05S
FORT BENTON      N/A     59  27  29 MISG      30.06F
GEYSER           N/A     51  28  39 NW10      30.06F
GRASS RANGE      N/A     47  37  70 W8        30.09F
JUDITH GAP     PTSUNNY   48  30  48 S9        30.09F
STANFORD         N/A     51  32  48 SE12      30.07F
WINIFRED         N/A     50  34  54 S17G23    30.08S
$$

MTZ017>020-022>027-061-062-300100-
NORTHEAST MONTANA

CITY           SKY/WX    TMP DP  RH WIND       PRES   REMARKS
GLASGOW        CLOUDY    58  29  33 S15       30.09F
JORDAN           N/A     61  22  22 SW15      30.10F
SIDNEY         MOSUNNY   59  32  36 NW6       30.15F
WOLF POINT     PTSUNNY   59  34  39 S10       30.12S
PLENTYWOOD       N/A     61  25  25 SW6       30.11F
POPLAR           N/A     57  37  47 S13       30.13F
$$

MTZ028>42-056>058-300100-
SOUTHCENTRAL AND SOUTHEAST MONTANA

CITY           SKY/WX    TMP DP  RH WIND       PRES   REMARKS
BAKER          MOSUNNY   56  22  26 SE8       30.17S
BILLINGS       MOSUNNY   54  26  34 SW8       30.12F
LIVINGSTON     SUNNY     55  25  31 W13       30.09F
MILES CITY     MOSUNNY   59  24  26 VRB5      30.14F
BIG TIMBER     SUNNY     52  30  43 VRB6      30.12F
LAUREL           N/A     56  25  30 SW8       30.10F
ROUNDUP          N/A     56  27  33 SE9       30.02S
$$

REGIONAL REPORTS...DAKOTAS

CITY           SKY/WX    TMP DP  RH WIND       PRES   REMARKS
WILLISTON      PTSUNNY   61  32  33 SW8       30.14F
MINOT          PTSUNNY   63  26  24 S7        30.14F
DICKINSON      CLOUDY    60  16  18 CALM      30.14F
BEACH            N/A     59  21  23 S7        30.19R
TIOGA            N/A     59  25  27 W8        30.15F
WATFORD CITY   PTSUNNY   61  30  31 SE8       30.15R
BISMARCK       SUNNY     62  21  20 VRB7      30.19F
GRAND FORKS    MOSUNNY   61  24  24 S3        30.22F
FARGO          SUNNY     60  21  22 NE10      30.20F
BUFFALO SD       N/A     57  17  21 VRB3      30.12S
RAPID CITY     SUNNY     54  18  24 NE8       30.17F
$$

REGIONAL REPORTS...WYOMING/IDAHO/WASHINGTON

CITY           SKY/WX    TMP DP  RH WIND       PRES   REMARKS
GILLETTE       SUNNY     37  28  70 SW5       30.20F
SHERIDAN       SUNNY     44  31  60 S8        30.19S
BUFFALO WY     SUNNY     38  26  62 SE9       30.20R WCI  31
CODY           SUNNY     48  24  39 S13       30.15F
YELLOWSTONE LA   N/A     35  23  61 E3        30.18F
IDAHO FALLS    MOSUNNY   54  27  35 SW12      30.17S
SALMON         SUNNY     59  27  29 N6        30.05F
BOISE          PTSUNNY   61  27  27 NW10      30.17F
SPOKANE        CLOUDY    57  32  38 SW16G24   30.11F
$$

REGIONAL REPORTS...ALBERTA

CITY           SKY/WX    TMP DP  RH WIND       PRES   REMARKS
EDMONTON       SUNNY     54  28  37 S8        29.93F
CALGARY        PTSUNNY   54  19  26 S10       29.92F
LETHBRIDGE     PTSUNNY   55  28  35 W23G32    29.98F
MEDICINE HAT   PTSUNNY   57  30  35 NW9       29.98F
CARDSTON         N/A     52  28  40 W9          N/A
MILK RIVER       N/A     57  25  28 W16         N/A
ONEFOUR          N/A     55  27  33 NW5         N/A
$$

REGIONAL REPORTS...SASKATCHEWAN

CITY           SKY/WX    TMP DP  RH WIND       PRES   REMARKS
SWIFT CURRENT  RAIN      41  39  93 N5        30.09F
REGINA         MOSUNNY   57  25  28 W6        30.11F
SASKATOON      PTSUNNY   55  21  26 S6        30.07F
CYPRESS HILLS    N/A     46  30  53 SW16G23     N/A
VAL MARIE        N/A     50  34  53 SW23G39     N/A
$$




USA.gov is the U.S. government's official web portal to all federal, state and local government web resources and services.